Weather History for KCWV - March, 2013

Change the Weather History Date:

Saturday, March 30, 2013

  Actual Average (KSAV) Record (KSAV)
Temperature  
Mean Temperature 62 °F 62 °F  
Max Temperature 77 °F 74 °F 91 °F (1907)
Min Temperature 46 °F 50 °F 32 °F (1955)
Degree Days  
Heating Degree Days 4 4  
Month to date heating degree days 205  
Since 1 July heating degree days 1722  
Cooling Degree Days 0 1  
Month to date cooling degree days 30  
Year to date cooling degree days 40  
Growing Degree Days 12 (Base 50)    
Moisture  
Dew Point 46 °F    
Average Humidity 62    
Maximum Humidity 100    
Minimum Humidity 28    
Precipitation  
Precipitation 0.00 in 0.12 in 1.73 in (1947)
Month to date precipitation 3.60  
Year to date precipitation 10.08  
Sea Level Pressure  
Sea Level Pressure 30.16 in    
Wind  
Wind Speed 2 mph (SW)    
Max Wind Speed 12 mph    
Max Gust Speed 18 mph    
Visibility 10 miles    
Events      
T = Trace of Precipitation, MM = Missing Value Source: NWS Daily Summary

Daily Weather History Graph

Daily Weather History Graph

Search for Another Location

Airport or City:

Trip Planner

Search our weather history database for the weather conditions in past years. The results will help you decide how hot, cold, wet, or windy it might be!

Date:

Astronomy

Mar. 30, 2013 Rise Set
Actual Time 7:18 AM EDT 7:46 PM EDT
Civil Twilight 6:53 AM EDT 8:10 PM EDT
Nautical Twilight 6:24 AM EDT 8:39 PM EDT
Astronomical Twilight 5:55 AM EDT 9:08 PM EDT
Moon 11:37 PM EDT (3/30) 9:25 AM EDT (3/30)
Length of Visible Light 13h 17m
Length of Day
12h 28m
Waning Gibbous, 86% of the Moon is Illuminated
Mar 30
Waning Gibbous
Apr 3
Last Quarter
Apr 10
New
Apr 18
First Quarter
Apr 25
Full

Hourly Weather History & Observations

Time (EDT) Temp. Dew Point Humidity Pressure Visibility Wind Dir Wind Speed Gust Speed Precip Events Conditions
12:15 AM 50.0 °F 46.4 °F 87% 30.24 in 10.0 mi Calm Calm - N/A   Clear
12:35 AM 50.0 °F 44.6 °F 82% 30.24 in 10.0 mi Calm Calm - N/A   Clear
12:55 AM 50.0 °F 46.4 °F 87% 30.24 in 10.0 mi Calm Calm - N/A   Clear
1:15 AM 50.0 °F 46.4 °F 87% 30.23 in 10.0 mi Calm Calm - N/A   Clear
1:35 AM 51.8 °F 46.4 °F 82% 30.23 in 10.0 mi Calm Calm - N/A   Clear
1:55 AM 51.8 °F 46.4 °F 82% 30.23 in 10.0 mi Calm Calm - N/A   Clear
2:15 AM 53.6 °F 46.4 °F 77% 30.23 in 10.0 mi Calm Calm - N/A   Clear
2:35 AM 53.6 °F 46.4 °F 77% 30.23 in 10.0 mi SSW 5.8 mph - N/A   Clear
3:15 AM 53.6 °F 46.4 °F 77% 30.22 in 10.0 mi Calm Calm - N/A   Clear
3:35 AM 53.6 °F 46.4 °F 77% 30.21 in 10.0 mi SSW 3.5 mph - N/A   Clear
3:55 AM 53.6 °F 46.4 °F 77% 30.21 in 10.0 mi SSW 4.6 mph - N/A   Clear
4:15 AM 53.6 °F 46.4 °F 77% 30.20 in 10.0 mi Calm Calm - N/A   Clear
4:35 AM 53.6 °F 46.4 °F 77% 30.20 in 10.0 mi Calm Calm - N/A   Clear
5:15 AM 53.6 °F 46.4 °F 77% 30.19 in 10.0 mi Calm Calm - N/A   Scattered Clouds
5:35 AM 53.6 °F 46.4 °F 77% 30.19 in 10.0 mi Calm Calm - N/A   Clear
5:55 AM 51.8 °F 46.4 °F 82% 30.19 in 10.0 mi Calm Calm - N/A   Clear
6:15 AM 50.0 °F 46.4 °F 87% 30.18 in 10.0 mi Calm Calm - N/A   Clear
6:35 AM 50.0 °F 46.4 °F 87% 30.19 in 10.0 mi Calm Calm - N/A   Clear
6:55 AM 48.2 °F 46.4 °F 93% 30.20 in 10.0 mi Calm Calm - N/A   Clear
7:15 AM 46.4 °F 46.4 °F 100% 30.20 in 10.0 mi Calm Calm - N/A   Clear
7:35 AM 46.4 °F 46.4 °F 100% 30.20 in 10.0 mi Calm Calm - N/A   Clear
7:55 AM 46.4 °F 46.4 °F 100% 30.21 in 10.0 mi Calm Calm - N/A   Clear
8:15 AM 50.0 °F 46.4 °F 87% 30.21 in 10.0 mi South 3.5 mph - N/A   Clear
8:35 AM 53.6 °F 44.6 °F 72% 30.22 in 10.0 mi Calm Calm - N/A   Clear
8:55 AM 55.4 °F 44.6 °F 67% 30.22 in 10.0 mi WSW 3.5 mph - N/A   Clear
9:15 AM 59.0 °F 44.6 °F 59% 30.22 in 10.0 mi Calm Calm - N/A   Clear
9:35 AM 60.8 °F 46.4 °F 59% 30.23 in 10.0 mi WSW 5.8 mph - N/A   Scattered Clouds
9:55 AM 60.8 °F 46.4 °F 59% 30.22 in 10.0 mi SW 5.8 mph - N/A   Mostly Cloudy
10:15 AM 60.8 °F 46.4 °F 59% 30.21 in 10.0 mi SW 3.5 mph - N/A   Overcast
10:35 AM 62.6 °F 46.4 °F 55% 30.21 in 10.0 mi SSW 4.6 mph - N/A   Scattered Clouds
10:55 AM 64.4 °F 48.2 °F 56% 30.21 in 10.0 mi West 4.6 mph - N/A   Scattered Clouds
11:15 AM 64.4 °F 48.2 °F 56% 30.21 in 10.0 mi SSW 5.8 mph - N/A   Scattered Clouds
11:35 AM 68.0 °F 50.0 °F 52% 30.20 in 10.0 mi WSW 3.5 mph - N/A   Clear
12:15 PM 71.6 °F 48.2 °F 43% 30.20 in 10.0 mi SW 5.8 mph - N/A   Scattered Clouds
12:35 PM 71.6 °F 46.4 °F 41% 30.19 in 10.0 mi SSW 6.9 mph - N/A   Scattered Clouds
1:15 PM 73.4 °F 42.8 °F 33% 30.17 in 10.0 mi SSW 6.9 mph 16.1 mph N/A   Clear
1:35 PM 73.4 °F 42.8 °F 33% 30.16 in 10.0 mi SW 4.6 mph - N/A   Clear
1:55 PM 75.2 °F 42.8 °F 31% 30.15 in 10.0 mi WSW 6.9 mph 18.4 mph N/A   Clear
2:15 PM 73.4 °F 44.6 °F 36% 30.15 in 10.0 mi West 9.2 mph 18.4 mph N/A   Clear
2:55 PM 75.2 °F 42.8 °F 31% 30.13 in 10.0 mi SW 5.8 mph - N/A   Clear
3:15 PM 77.0 °F 41.0 °F 28% 30.12 in 10.0 mi WSW 5.8 mph - N/A   Clear
3:35 PM 77.0 °F 42.8 °F 29% 30.11 in 10.0 mi West 8.1 mph 16.1 mph N/A   Clear
3:55 PM 77.0 °F 42.8 °F 29% 30.10 in 10.0 mi West 8.1 mph 16.1 mph N/A   Clear
4:15 PM 77.0 °F 42.8 °F 29% 30.10 in 10.0 mi WNW 6.9 mph - N/A   Clear
4:35 PM 77.0 °F 42.8 °F 29% 30.09 in 10.0 mi West 11.5 mph 17.3 mph N/A   Clear
4:55 PM 75.2 °F 42.8 °F 31% 30.09 in 10.0 mi SW 4.6 mph - N/A   Scattered Clouds
5:15 PM 75.2 °F 44.6 °F 34% 30.08 in 10.0 mi Calm Calm - N/A   Scattered Clouds
5:35 PM 77.0 °F 44.6 °F 32% 30.08 in 10.0 mi SSW 3.5 mph - N/A   Scattered Clouds
6:15 PM 75.2 °F 44.6 °F 34% 30.08 in 10.0 mi WSW 4.6 mph - N/A   Clear
6:35 PM 75.2 °F 44.6 °F 34% 30.08 in 10.0 mi SSW 5.8 mph - N/A   Clear
7:15 PM 73.4 °F 44.6 °F 36% 30.08 in 10.0 mi Calm Calm - N/A   Clear
7:35 PM 71.6 °F 44.6 °F 38% 30.08 in 10.0 mi SW 3.5 mph - N/A   Clear
7:55 PM 68.0 °F 46.4 °F 46% 30.08 in 10.0 mi Calm Calm - N/A   Clear
8:15 PM 64.4 °F 50.0 °F 59% 30.09 in 10.0 mi Calm Calm - N/A   Clear
8:35 PM 62.6 °F 50.0 °F 63% 30.09 in 10.0 mi Calm Calm - N/A   Clear
9:15 PM 60.8 °F 50.0 °F 68% 30.09 in 10.0 mi Calm Calm - N/A   Clear
9:35 PM 60.8 °F 51.8 °F 72% 30.09 in 10.0 mi Calm Calm - N/A   Clear
9:55 PM 59.0 °F 51.8 °F 77% 30.09 in 10.0 mi Calm Calm - N/A   Clear
10:15 PM 59.0 °F 51.8 °F 77% 30.09 in 10.0 mi Calm Calm - N/A   Clear
10:35 PM 59.0 °F 51.8 °F 77% 30.10 in 10.0 mi Calm Calm - N/A   Clear
10:55 PM 59.0 °F 51.8 °F 77% 30.10 in 10.0 mi Calm Calm - N/A   Clear
11:15 PM 59.0 °F 50.0 °F 72% 30.10 in 10.0 mi Calm Calm - N/A   Clear
11:55 PM 55.4 °F 50.0 °F 82% 30.09 in 10.0 mi South 3.5 mph - N/A   Clear